Location: Burla
(50.9568°N, 10.4983°E)
Time: 06:09:37
(UTC+00:00)

Gbstr 26 Del rocket - Pass Details

Date: 18 January 2026
Orbit: 490 x 1217 km, 51.8° (Epoch: 17 February)

Event Time Altitude Azimuth Distance (km) Brightness Sun altitude
Exits shadow 06:16:02 - 263° (W) 3,462 6.3 -8.7°
Reaches altitude 10° 06:17:21 10° 263° (W) 2,994 6.0 -8.5°
Maximum altitude 06:24:38 85° 352° (N) 1,001 4.1 -7.4°
Drops below altitude 10° 06:30:40 10° 83° (E) 2,502 7.2 -6.5°
Sets 06:32:57 0° 84° (E) 3,330 7.9 -6.2°
